Wind_Speed
10 9 8 9 9 9 9 10 10 10 10 10 9 9 10 10 10 11 11 11 11 10 10 8 8 9 9 8 8 8 8 8 8 7 6 6 6 7 9 9 8 7 7 9 10 10 12 16 17 16 15 16 17 16 15 14 14 15 15 15 15 15 15 15 15 15 15 15 15 14 14 14 14 13 13 13 13 12 12 11 11 11 11 10 9
10 10 10 10 10 10 11 11 11 12 11 11 11 11 11 11 11 11 11 11 10 10 9 8 7 8 7 7 6 6 6 6 7 7 6 6 6 7 8 8 8 7 7 8 9 10 11 14 16 17 16 15 15 15 15 15 15 15 15 16 16 16 16 16 16 16 16 16 16 16 15 15 15 15 14 14 14 13 13 13 12 12 12 11 11
11 11 11 11 12 11 11 11 11 12 12 11 10 10 11 12 12 10 10 9 8 8 7 7 8 7 7 6 5 5 6 5 6 7 7 7 7 9 9 8 7 7 7 8 9 10 10 11 13 14 13 13 14 15 16 16 16 16 16 16 16 17 17 17 17 17 17 17 17 17 17 17 17 16 16 15 15 15 14 14 13 13 13 12 12
13 12 12 12 13 12 12 12 11 11 11 10 9 10 11 11 11 9 8 7 7 7 7 8 8 7 7 6 5 5 6 6 6 7 8 8 9 10 10 9 8 7 7 8 8 9 9 9 9 9 11 14 15 15 15 16 16 17 18 17 18 18 18 18 18 18 18 17 17 17 18 18 18 17 17 17 16 16 15 15 14 14 14 14 13
14 14 13 13 12 13 13 12 12 11 11 10 10 11 10 9 9 7 6 6 7 7 7 8 8 7 7 7 6 6 6 6 6 7 7 8 8 10 10 9 9 8 7 7 7 8 7 6 5 6 12 16 14 14 14 16 18 19 20 20 20 20 19 19 19 19 19 19 18 18 19 18 18 18 18 18 18 17 17 16 16 15 15 15 15
15 14 14 13 13 14 12 10 12 12 11 11 10 9 7 6 6 6 6 6 6 7 8 8 8 7 7 7 7 6 6 6 6 6 6 7 7 8 9 9 9 9 8 8 7 7 6 4 3 5 11 14 13 14 16 17 19 20 20 22 22 22 21 20 20 20 20 20 20 19 19 19 19 19 19 19 19 18 18 17 17 17 16 16 16
14 15 15 14 13 12 11 12 13 12 10 9 8 6 5 5 5 5 6 6 6 7 7 8 8 8 8 7 7 7 6 6 6 6 6 6 6 7 8 9 9 9 8 7 7 7 5 3 2 5 8 10 13 17 19 19 19 19 20 21 22 23 23 22 21 21 21 21 21 21 20 20 20 20 20 20 20 20 19 19 18 18 17 17 17
15 15 15 14 13 11 10 12 11 9 8 6 5 5 5 4 4 4 5 6 7 7 7 7 8 8 8 8 7 8 7 7 6 5 4 4 5 6 7 9 9 9 8 6 6 5 4 1 0 2 5 8 12 17 18 19 19 19 20 21 21 23 24 24 24 23 22 22 21 21 21 21 21 21 21 21 21 21 21 20 20 19 19 19 18
16 16 14 14 13 10 8 8 8 6 5 5 5 4 4 3 4 4 5 6 7 8 8 8 9 9 8 9 9 8 8 6 5 3 2 2 3 4 5 6 7 6 5 4 4 4 3 1 3 2 5 9 12 14 15 17 19 19 20 21 22 23 24 25 24 24 24 23 23 23 23 23 22 22 22 22 22 22 21 21 21 21 20 20 20
16 16 13 12 11 8 7 6 5 4 4 4 4 3 3 3 5 5 5 6 8 9 9 9 10 10 9 9 8 7 6 4 2 2 2 3 3 3 3 3 3 2 1 2 3 3 3 1 2 3 4 8 10 10 12 15 17 19 20 21 22 23 24 23 23 22 23 23 24 24 23 23 23 24 24 23 23 22 22 22 22 22 21 21 21
15 14 10 9 8 6 5 4 4 4 4 3 3 3 4 4 6 7 7 7 8 8 9 9 9 10 10 9 7 5 2 2 3 3 3 3 4 4 4 4 3 2 1 1 1 1 2 2 1 1 4 6 7 8 10 12 14 15 17 18 20 22 22 21 20 19 20 22 24 25 25 25 25 26 25 25 24 24 23 23 23 23 22 22 22
12 9 6 7 6 4 4 4 4 4 3 4 4 5 5 6 7 7 7 7 7 6 7 8 8 9 8 6 5 2 4 5 4 3 4 4 5 5 5 6 6 5 4 3 2 1 1 2 3 3 4 6 6 7 9 11 12 12 14 15 17 17 17 18 18 18 20 22 23 25 27 27 27 26 27 27 26 26 25 25 24 24 24 23 23
9 7 6 6 6 5 5 4 4 4 4 5 6 6 6 7 7 7 6 6 5 5 5 6 7 7 6 4 3 3 6 6 5 4 4 4 4 5 6 6 6 6 5 5 4 3 2 1 2 3 5 5 5 7 9 10 11 11 13 14 14 14 14 15 14 16 19 21 23 24 26 27 26 26 26 28 28 28 27 27 26 26 26 25 25
6 7 8 8 8 7 6 6 5 5 5 5 6 7 7 6 7 6 5 5 5 4 5 5 5 6 6 4 2 3 5 3 4 4 3 4 4 5 6 6 6 6 5 5 5 5 4 2 1 1 3 4 4 5 6 8 9 10 11 12 12 11 11 12 12 14 17 19 21 22 24 25 24 24 25 26 28 29 29 28 28 28 27 27 27
7 9 10 10 9 8 8 7 6 5 5 6 7 7 6 5 5 4 4 4 3 4 4 4 5 5 4 3 2 1 4 3 2 3 2 3 3 4 6 7 5 5 5 5 5 5 4 3 2 0 1 2 4 4 5 6 7 8 9 10 9 8 8 9 11 14 16 17 18 19 21 22 22 24 25 25 27 29 29 29 30 30 29 28 28
9 11 12 10 9 9 8 7 6 5 5 7 7 6 5 4 3 2 3 3 2 2 3 4 5 4 3 2 2 2 1 1 4 2 1 2 3 5 7 7 6 6 6 6 5 4 4 2 1 0 1 2 4 5 6 6 7 8 7 7 7 6 6 8 9 11 13 14 15 17 18 20 22 25 25 25 27 27 28 29 30 30 30 30 30
11 13 13 10 10 9 8 7 6 6 7 7 6 6 5 4 3 2 2 2 1 1 2 3 4 3 3 3 2 2 1 4 5 1 0 1 2 5 8 9 8 8 9 8 6 6 5 4 2 2 1 1 2 3 4 6 7 7 6 7 7 5 5 6 7 9 10 12 13 15 17 18 21 24 24 25 26 26 27 28 29 29 30 31 30
13 15 14 11 10 9 7 6 6 7 7 6 5 5 5 5 5 3 2 2 0 1 1 2 3 2 3 3 3 3 3 4 4 1 1 0 2 5 7 9 9 9 10 9 8 8 7 7 6 5 4 4 4 4 4 5 6 6 6 7 7 6 5 6 7 8 9 10 12 14 15 16 18 21 22 23 24 25 26 28 29 29 30 31 31
15 17 14 11 10 9 7 6 6 6 6 5 4 4 5 6 5 3 2 2 1 1 1 2 2 2 2 3 3 4 3 4 3 3 2 0 1 3 5 8 8 8 9 8 8 8 8 9 9 8 7 7 7 7 8 8 7 7 7 7 8 7 7 7 8 9 9 9 11 13 13 14 15 18 20 22 23 24 26 27 28 29 29 30 31
16 17 15 11 10 8 6 5 5 5 5 5 4 4 4 5 4 3 2 2 1 1 1 2 2 2 2 3 3 3 3 3 3 3 3 2 2 2 4 7 6 6 8 8 7 8 9 9 9 10 10 10 10 10 10 11 11 10 9 9 9 9 9 9 9 9 9 10 11 13 13 13 13 16 18 20 21 23 24 25 26 28 29 29 30
15 16 14 12 11 9 7 6 5 5 5 5 4 4 4 5 4 3 3 3 2 1 1 2 2 2 2 2 2 3 3 3 3 2 3 4 3 3 5 7 5 5 6 5 5 5 7 8 8 8 9 9 10 10 11 11 12 12 11 10 10 10 10 9 9 9 10 11 12 14 14 14 14 15 16 17 18 20 22 23 24 26 27 28 29
15 15 14 13 11 9 8 8 7 6 5 5 5 5 5 5 4 4 4 4 3 3 3 2 2 3 3 3 3 3 3 3 3 3 3 4 4 5 6 6 5 5 4 5 5 2 3 5 6 6 7 7 8 8 10 11 11 11 11 11 12 12 12 11 11 11 10 11 12 14 15 15 16 16 16 17 17 19 20 22 23 25 26 27 28
17 17 16 14 11 11 11 9 8 7 7 7 6 6 5 5 4 4 4 4 5 5 4 4 3 4 4 5 4 3 3 4 3 4 4 4 4 5 7 7 7 4 3 7 8 3 2 3 3 5 5 6 6 7 8 9 10 11 11 11 12 12 13 13 13 13 13 12 12 13 14 15 17 18 18 19 19 20 20 21 22 23 24 25 27
19 19 17 14 12 13 13 11 10 10 9 9 8 6 5 5 5 4 4 4 5 6 6 5 5 5 5 6 6 4 4 4 4 4 4 5 5 6 7 7 7 5 5 8 7 4 5 4 2 4 5 5 7 8 9 9 10 11 12 12 11 12 13 13 14 14 14 14 14 14 15 15 16 18 19 20 21 21 22 22 22 23 23 24 26
21 20 19 16 14 15 15 14 13 12 12 11 9 8 7 6 5 5 5 5 5 5 5 6 6 6 6 6 6 5 5 4 4 5 5 5 5 6 7 6 6 7 7 7 6 7 7 5 5 7 7 5 7 10 12 13 13 14 14 14 14 13 14 14 14 14 15 15 15 15 15 16 16 17 18 19 21 22 23 24 24 24 24 25 25
23 22 20 18 15 15 16 15 15 14 14 12 10 10 9 8 7 6 6 6 5 5 6 6 7 7 7 6 6 7 6 6 6 6 6 6 6 7 7 6 7 8 8 6 6 7 7 6 7 9 10 8 7 11 14 14 15 16 17 17 17 17 16 16 16 15 16 16 16 16 16 16 17 17 18 18 19 21 23 24 26 26 26 26 26
22 21 20 18 15 15 15 15 15 15 14 12 11 11 11 10 9 8 7 7 7 7 7 7 7 8 8 8 8 8 9 8 8 8 8 8 8 8 7 6 6 7 7 7 7 8 8 8 9 9 10 9 10 14 17 17 18 19 20 20 20 21 19 19 19 18 17 18 18 18 18 18 18 18 19 19 19 20 21 23 25 27 28 28 28
21 20 19 17 15 15 15 15 15 15 14 13 12 12 12 11 11 10 9 9 9 9 10 10 10 9 9 9 10 10 10 10 11 10 10 10 10 9 8 7 7 7 6 7 7 7 7 8 9 9 9 10 12 17 20 20 20 21 21 22 23 24 23 21 21 20 20 19 19 20 20 20 20 20 20 21 21 21 21 22 24 26 28 29 30
20 20 19 17 16 15 15 16 16 16 15 13 13 13 12 12 12 12 11 11 11 12 12 12 12 11 10 11 11 11 11 12 12 12 12 13 12 11 11 11 10 7 7 7 7 8 7 8 10 9 10 12 15 19 22 22 22 22 23 24 25 25 25 23 23 22 21 21 21 21 22 22 23 22 23 24 25 24 23 23 24 25 27 29 31
20 20 19 18 16 15 15 17 17 16 15 14 13 12 12 13 13 13 13 13 13 14 14 14 14 13 12 12 12 12 13 13 13 13 14 15 14 14 14 13 12 10 8 8 9 10 9 9 11 11 11 14 16 18 23 25 23 23 24 26 27 27 26 25 24 23 22 22 22 23 23 24 24 25 25 26 28 28 27 25 25 25 26 28 30
21 20 19 18 17 16 16 17 17 16 15 14 13 13 13 14 14 14 15 15 15 14 14 15 15 14 14 13 13 13 13 14 14 14 15 16 16 16 15 16 16 14 13 11 10 11 11 11 13 13 14 18 20 20 23 26 27 26 26 26 27 27 27 26 24 23 23 23 23 23 24 24 25 26 27 29 30 30 30 28 27 26 26 27 29
21 20 19 17 16 16 17 18 17 16 15 15 14 14 14 14 15 15 15 16 15 14 14 15 15 15 14 14 14 14 14 14 14 15 15 16 17 17 17 18 18 17 15 13 11 14 17 17 16 16 16 18 22 24 24 26 26 26 26 27 28 28 27 26 25 24 24 24 24 24 24 25 26 27 29 31 32 32 32 31 31 29 28 28 29
22 21 18 16 15 17 17 18 17 16 15 15 14 14 14 15 16 16 16 16 16 16 16 16 16 16 16 15 15 15 15 14 14 14 14 15 16 18 18 18 19 18 16 16 15 16 20 21 18 18 18 17 21 25 24 22 21 21 24 27 28 27 26 25 25 25 26 26 26 26 26 26 27 28 30 32 33 33 33 33 33 32 31 30 30
22 20 17 14 15 17 17 18 17 17 16 16 15 15 15 15 16 17 17 17 17 18 18 18 18 18 17 17 17 16 15 15 15 15 14 15 15 17 18 17 18 19 18 18 17 16 19 21 20 20 19 18 21 24 22 20 19 19 21 23 22 21 22 24 24 25 26 27 27 28 28 27 28 29 30 32 33 34 34 34 34 34 33 32 32
21 19 15 13 15 17 17 17 18 18 18 17 16 16 16 17 18 18 19 19 20 20 20 19 18 18 18 18 17 15 15 15 15 15 15 16 16 16 17 17 17 19 19 18 18 17 19 21 20 21 20 18 19 21 20 20 20 19 19 19 18 19 21 24 26 27 27 28 29 29 28 29 29 30 30 32 33 34 34 34 35 35 35 34 33
21 19 15 13 15 17 17 17 19 20 20 19 18 17 18 19 19 20 20 21 20 19 18 17 16 15 16 16 15 14 14 14 15 15 15 16 16 16 16 16 16 18 18 17 17 17 19 20 19 19 20 18 18 19 20 20 20 19 19 19 19 20 23 25 24 26 28 29 30 30 30 31 31 31 31 31 32 34 36 37 37 37 38 37 35
24 21 18 16 18 20 20 20 21 22 22 21 20 19 19 20 21 21 21 21 19 16 15 14 13 14 14 15 15 14 14 14 15 15 15 15 15 15 16 15 15 16 16 16 16 16 17 18 18 19 19 19 19 19 18 18 19 19 19 19 18 19 22 22 20 22 25 27 28 29 31 33 33 32 31 31 33 36 37 39 40 40 40 40 38
26 23 22 22 22 23 23 23 23 23 23 22 21 21 21 21 22 22 21 20 17 15 14 13 13 14 14 14 14 14 14 15 15 15 15 15 15 15 16 15 15 15 15 16 15 15 15 16 17 18 19 20 20 19 17 17 19 20 20 20 19 18 19 20 21 21 23 24 25 27 30 31 32 32 32 33 34 37 39 41 42 42 42 42 41
26 24 24 25 25 25 25 26 25 23 23 24 23 23 22 22 23 22 21 19 17 15 15 14 14 14 14 14 14 15 15 16 17 16 16 16 15 15 16 15 15 15 15 15 15 15 15 15 15 16 17 18 19 18 18 18 20 20 21 21 21 20 19 21 23 24 25 25 26 29 31 32 32 33 35 36 36 36 38 40 42 42 42 43 42
28 26 25 25 26 26 27 28 26 24 24 25 25 24 23 23 23 22 20 19 18 16 16 15 15 16 16 16 16 16 16 17 17 17 17 16 15 14 15 15 14 15 15 15 15 15 15 16 15 15 16 18 19 18 18 19 20 20 20 21 22 23 23 24 26 26 27 28 29 29 30 30 30 31 32 33 35 37 39 41 43 44 44 43 43
28 27 26 26 27 27 28 28 27 25 25 25 25 25 24 23 22 20 20 20 19 18 17 17 17 17 18 18 18 18 18 18 18 18 18 18 17 15 14 14 14 14 14 15 15 16 17 18 17 16 17 19 20 19 19 19 20 21 22 23 23 24 25 26 26 26 26 28 30 31 30 29 30 32 32 32 36 41 41 40 41 41 41 40 39
27 26 27 27 26 27 29 29 27 27 27 26 24 23 22 20 19 19 20 20 19 18 18 18 18 19 19 20 20 20 20 19 20 20 20 20 19 18 16 15 15 15 15 15 15 17 17 18 18 17 18 20 20 21 21 21 22 23 23 23 24 25 26 26 25 25 25 26 30 33 33 30 30 35 37 37 41 43 40 37 37 38 39 38 37
28 26 27 26 25 28 30 29 28 28 29 26 23 21 19 18 18 19 19 19 19 18 19 19 20 20 20 20 21 21 20 20 20 20 20 20 19 18 16 17 18 19 19 17 17 18 17 18 19 18 18 20 20 22 23 24 23 23 23 24 24 25 26 23 22 23 24 26 29 33 36 34 32 37 41 42 42 41 39 38 39 41 42 41 40
28 26 26 27 28 30 31 29 28 29 29 26 22 20 18 17 18 19 19 19 18 18 20 21 21 21 21 20 20 20 20 21 20 18 18 18 18 17 17 19 22 23 22 20 19 19 18 17 18 19 19 20 19 20 24 24 24 24 25 25 24 25 26 25 24 25 26 26 29 33 39 37 32 34 40 41 39 38 39 40 40 41 42 42 42
26 25 27 30 31 31 30 28 27 28 28 26 22 20 19 18 18 18 19 19 18 20 21 21 21 21 20 18 17 18 19 21 19 15 14 14 15 16 18 20 21 20 19 18 18 20 19 17 17 18 20 19 18 20 23 24 25 26 26 25 25 26 27 27 28 30 29 28 30 34 38 35 30 31 37 38 37 39 41 42 42 42 42 43 43
27 27 29 31 31 30 28 26 26 26 28 27 24 22 21 20 19 19 20 20 20 21 21 20 20 19 17 16 15 17 17 16 14 11 10 11 13 14 16 17 17 16 15 15 15 15 15 14 15 17 18 18 19 22 24 24 25 26 25 25 25 26 27 28 29 32 30 28 30 32 32 30 29 32 37 37 39 43 46 45 45 45 44 43 43
29 30 28 26 27 28 26 25 24 25 27 27 25 23 23 22 20 21 22 21 20 20 19 18 16 15 15 15 15 14 13 12 10 10 10 11 11 13 15 15 16 15 13 12 12 12 11 11 13 15 17 19 21 24 25 26 26 23 21 21 22 23 26 27 28 29 28 27 28 29 27 28 32 35 38 41 42 44 45 43 43 45 44 43 43
25 25 23 21 22 24 24 25 24 24 25 26 24 23 23 24 22 22 21 19 18 17 16 15 14 15 16 14 11 10 10 10 11 11 12 12 12 13 14 14 15 14 13 13 14 13 11 11 13 16 19 21 24 25 26 27 25 19 16 18 20 21 23 25 26 27 27 27 28 27 27 31 35 35 38 43 44 43 43 42 40 40 41 41 41
22 23 21 19 20 22 23 23 24 25 25 25 24 22 23 25 24 22 20 17 15 14 13 14 15 15 14 11 8 8 9 9 11 12 12 13 12 12 12 13 14 15 15 14 14 14 13 14 17 20 21 23 24 25 25 26 24 19 16 19 21 21 21 20 20 25 28 28 28 26 26 33 37 35 37 43 44 41 39 40 38 36 36 38 39
22 21 19 18 18 20 21 20 21 23 23 23 23 21 21 23 22 20 18 16 14 12 12 14 15 14 12 10 8 7 7 8 11 13 13 13 12 10 11 13 14 15 15 13 12 13 15 17 19 22 23 23 24 25 26 26 25 21 18 20 22 23 24 22 21 25 28 29 31 27 25 31 36 34 34 36 38 38 36 34 35 33 32 32 34
20 18 17 16 15 17 19 18 20 22 20 19 20 20 20 20 21 20 18 15 12 12 13 14 14 13 12 10 8 7 7 9 12 13 13 13 12 9 9 11 14 14 14 12 11 12 14 16 17 20 22 23 23 25 25 24 24 21 18 20 22 24 26 27 26 24 19 22 29 26 23 30 36 36 33 24 19 26 30 27 28 30 29 28 27
Wind_Direction
266 271 274 274 280 286 293 298 300 303 305 305 304 303 305 306 305 302 301 300 301 303 303 302 302 305 305 303 298 290 283 278 283 291 297 299 298 301 304 295 279 263 250 251 250 240 235 236 234 231 224 223 223 218 222 229 230 227 224 223 224 223 223 224 224 224 225 226 229 231 231 231 231 231 231 232 233 234 237 238 239 240 241 242 243
271 275 278 280 285 290 293 294 298 303 302 299 298 299 299 301 302 301 301 300 300 300 299 298 301 305 307 308 303 288 283 279 283 291 294 291 288 293 299 295 287 271 250 249 253 248 241 236 236 235 228 226 229 224 222 229 233 234 231 228 227 225 225 226 227 227 227 229 231 233 236 235 233 233 234 235 235 236 238 241 243 245 245 245 245
273 277 282 287 289 290 292 293 297 304 302 296 295 298 298 299 301 299 300 301 302 301 298 297 299 303 304 307 305 293 290 287 287 291 292 288 286 292 293 288 285 280 259 247 248 255 256 249 242 238 234 230 232 231 228 231 234 237 238 235 233 230 228 228 229 230 229 231 232 234 237 239 238 236 236 237 237 237 239 242 245 247 248 248 248
273 279 284 286 285 287 292 295 294 296 299 297 296 299 299 298 298 296 297 301 303 302 299 297 297 300 304 304 301 296 295 292 290 289 288 289 291 294 292 282 278 279 271 258 251 255 259 262 256 242 239 236 231 231 233 235 235 237 239 239 238 235 232 230 231 231 231 232 234 235 237 240 242 241 239 239 239 239 239 241 244 246 248 249 250
274 278 282 281 284 288 291 292 290 290 295 297 298 301 300 300 299 296 298 303 304 305 302 299 298 300 303 303 301 301 301 298 293 291 291 291 292 294 292 283 275 272 272 269 265 266 267 277 280 250 240 239 235 234 236 238 238 236 238 238 238 238 236 235 235 234 234 233 234 236 237 239 242 243 243 242 241 241 240 241 243 245 247 249 250
273 275 278 280 287 291 286 286 290 291 291 293 298 300 298 297 298 299 301 305 308 309 307 303 302 304 304 304 304 307 306 302 295 293 295 294 294 297 297 291 280 272 270 271 272 277 283 290 294 265 247 240 239 239 236 238 240 239 239 240 239 239 239 238 239 239 238 237 236 237 238 239 240 243 244 245 245 244 244 244 244 245 246 248 249
270 272 277 280 285 285 281 287 293 292 287 286 292 292 288 292 296 303 306 310 314 312 310 306 306 307 309 311 312 314 312 306 303 298 295 295 298 299 300 297 288 276 267 268 274 278 288 296 281 273 265 248 240 241 239 239 242 244 245 244 242 240 239 239 238 239 241 240 239 239 239 239 240 241 243 245 245 246 247 247 247 247 246 247 249
273 275 280 283 282 278 281 290 292 292 286 276 276 277 283 295 297 303 305 307 309 309 309 308 309 309 312 317 319 321 318 315 313 304 294 296 301 302 301 298 292 278 263 263 273 271 279 313 116 246 263 255 245 247 249 247 248 249 250 250 247 242 239 239 238 238 241 241 241 241 242 241 240 241 242 243 245 246 247 248 249 249 248 248 249
274 277 280 280 277 274 280 285 279 277 278 267 265 267 280 297 296 296 297 301 302 303 304 304 306 307 310 316 319 321 322 322 325 322 323 324 315 311 309 303 298 283 262 267 276 267 261 163 122 156 233 251 251 253 255 253 253 252 251 250 249 246 243 242 241 240 242 244 245 244 244 243 242 242 242 243 244 245 246 247 247 248 249 249 251
272 278 277 268 265 265 267 268 257 248 248 255 261 266 279 287 286 287 288 294 297 300 302 302 304 306 309 314 319 323 327 337 7 20 11 2 349 341 343 338 323 291 237 263 277 259 250 211 135 150 220 250 260 261 257 253 253 253 253 250 249 248 247 247 247 246 247 250 252 252 250 248 246 246 245 244 245 246 246 247 247 247 248 249 251
273 279 272 257 253 250 247 243 234 222 225 243 254 269 278 279 282 284 289 295 298 299 302 304 306 307 308 314 321 327 357 57 56 47 37 29 32 30 30 39 51 65 115 179 275 262 257 254 235 199 226 247 260 266 263 259 258 259 259 255 253 253 253 254 255 255 254 255 256 256 255 252 249 250 249 246 246 247 248 249 249 249 249 249 251
271 271 252 242 236 224 219 213 213 212 223 246 256 266 274 279 282 285 295 305 306 305 308 312 313 310 307 316 332 342 107 86 63 58 51 47 50 52 52 53 60 65 82 107 121 139 248 251 251 248 245 247 249 253 254 255 259 266 270 266 263 264 266 266 265 261 257 256 256 254 254 253 250 250 251 251 249 248 249 251 251 251 251 251 252
267 252 229 224 215 207 209 203 208 224 241 257 267 272 274 277 280 287 300 309 313 318 321 319 320 324 322 337 14 109 124 85 61 65 54 53 58 59 58 55 59 65 75 89 104 110 115 223 245 254 255 258 263 263 261 264 269 276 279 276 275 277 279 280 280 271 262 258 257 255 255 255 253 251 252 254 253 251 250 252 253 253 253 254 254
245 225 213 209 204 204 210 213 224 240 256 269 273 274 274 274 279 292 306 309 313 324 331 327 330 343 336 332 31 112 148 113 57 59 55 56 65 62 54 48 54 64 72 77 82 89 91 97 102 261 259 265 279 280 276 277 278 280 281 281 285 293 290 288 285 272 263 260 258 257 259 259 259 259 257 256 255 254 253 252 254 254 254 255 256
223 214 209 204 204 207 213 223 230 240 264 276 272 266 266 267 274 290 301 302 308 324 337 341 339 342 330 314 0 22 180 174 27 40 61 52 64 62 48 44 54 67 69 67 67 72 78 85 94 70 273 280 291 293 294 291 284 282 283 288 300 314 303 286 276 266 262 263 264 265 264 260 259 259 257 255 254 254 254 252 252 254 255 255 256
217 214 211 205 207 212 219 225 227 245 270 275 270 263 257 252 262 277 284 291 301 331 340 347 345 343 333 331 331 303 192 53 345 345 108 49 63 55 42 43 59 70 64 58 60 67 68 66 81 277 273 278 287 290 300 305 302 300 303 311 321 326 305 285 279 276 274 273 271 268 265 258 255 255 255 254 252 252 253 253 252 252 253 255 256
216 215 212 209 214 217 222 225 233 262 274 271 270 265 255 250 262 257 249 277 297 334 345 348 344 343 332 327 316 306 10 359 338 300 178 14 55 46 41 44 56 63 57 56 61 67 65 57 60 54 11 330 318 312 318 320 319 324 331 337 342 343 319 287 278 280 282 281 273 265 263 259 256 257 258 256 255 253 253 253 253 252 252 253 255
216 215 213 212 217 216 218 228 248 268 268 264 263 261 259 259 268 258 223 240 259 349 4 352 333 327 319 309 309 319 338 340 333 339 339 340 53 36 40 42 49 53 48 54 60 63 65 61 63 60 48 40 23 12 8 357 349 347 345 342 344 347 332 297 280 277 278 279 274 269 268 266 262 261 260 258 257 256 254 254 254 254 252 252 253
214 214 213 213 216 214 219 236 250 253 246 240 242 252 257 256 256 244 231 249 270 343 353 347 325 320 318 302 302 306 314 326 323 333 339 27 38 34 41 32 38 46 42 49 56 62 70 67 65 62 57 52 42 35 29 21 16 9 357 346 345 342 329 311 297 288 283 277 273 272 273 273 269 266 264 262 260 257 255 255 255 256 255 253 253
213 213 212 210 211 212 222 235 233 229 223 220 233 249 253 251 248 232 238 261 278 310 326 329 312 305 309 296 303 310 318 325 306 316 329 312 334 32 31 15 27 42 40 49 59 68 76 73 68 63 62 60 56 51 43 34 30 26 16 5 2 356 343 328 316 304 295 284 274 273 273 274 272 269 268 266 263 260 257 257 258 258 258 256 255
212 211 209 206 207 216 232 233 220 218 219 224 249 267 259 255 256 251 254 261 269 264 254 282 281 282 293 287 295 298 295 295 277 288 307 303 317 342 347 354 14 28 32 45 54 69 73 68 64 59 60 59 58 56 46 38 32 28 23 15 14 9 0 349 338 326 312 296 283 278 276 273 271 269 270 270 267 264 260 259 259 258 258 258 257
208 205 204 203 207 225 233 225 219 224 227 236 263 275 264 258 260 261 264 267 267 256 244 251 257 263 272 277 283 283 281 279 266 273 286 281 283 304 324 338 346 355 16 16 10 36 55 50 52 49 54 54 50 44 35 29 25 24 22 20 19 14 8 0 353 349 338 322 303 293 287 279 274 271 269 269 268 266 263 262 261 260 259 258 257
202 200 202 204 214 227 223 216 220 228 234 244 259 262 251 249 256 259 258 254 256 258 256 255 255 254 253 258 265 273 284 291 293 287 281 282 283 297 317 330 327 321 332 342 341 329 327 352 21 22 30 34 30 24 18 13 8 7 10 17 21 18 13 7 0 356 351 344 331 319 309 296 286 280 274 270 267 266 266 266 264 262 261 259 257
200 199 202 207 217 221 216 217 223 228 233 241 251 251 239 238 248 253 247 241 247 253 256 257 258 258 256 259 261 264 268 275 286 281 272 284 293 296 309 323 321 307 313 328 326 310 304 287 290 341 349 0 4 1 358 356 352 349 350 355 3 6 5 4 2 359 356 353 347 338 331 321 307 296 287 279 273 269 266 266 265 263 262 261 259
200 201 206 210 215 216 215 220 226 229 231 236 247 248 239 238 244 243 237 239 246 249 254 259 260 259 264 268 265 265 266 264 269 268 264 271 276 285 298 305 299 297 305 309 300 301 299 265 266 307 314 320 342 347 345 344 342 340 338 335 337 341 343 345 348 350 351 353 353 349 341 334 326 315 305 294 285 278 271 267 264 262 262 261 260
205 208 210 210 212 216 217 221 228 230 231 235 245 243 237 238 242 241 238 240 244 250 258 263 263 263 266 269 268 265 267 267 264 262 263 265 268 281 292 291 282 284 286 278 268 279 283 264 269 294 299 295 316 334 336 334 333 334 334 331 329 330 330 331 333 334 337 341 345 350 348 342 334 326 319 310 299 289 281 274 269 264 261 259 259
212 213 212 210 211 215 218 224 230 230 230 237 243 240 236 238 241 243 243 243 244 248 254 257 261 264 264 265 268 267 266 266 265 263 262 263 267 275 283 289 289 288 285 277 266 263 266 266 262 272 285 285 298 318 324 323 323 325 327 327 327 326 325 324 324 324 325 327 331 336 341 343 340 335 329 322 313 302 292 283 276 270 265 260 258
216 214 211 210 212 216 222 227 229 227 229 238 242 237 236 239 243 245 245 246 248 249 253 256 259 262 264 265 266 267 268 266 264 263 262 262 266 268 270 278 290 298 297 290 285 275 266 269 269 263 267 275 289 306 315 316 316 320 322 321 322 322 321 319 317 317 318 319 320 323 327 331 334 335 334 331 325 315 303 293 284 277 271 265 260
215 213 211 210 214 219 225 226 224 224 230 237 239 237 240 242 243 245 246 249 255 256 257 259 260 261 263 265 267 270 270 268 264 262 263 264 264 264 264 269 277 287 297 295 294 291 280 278 282 275 271 280 290 301 310 312 313 317 318 316 316 318 317 315 311 310 312 313 314 315 317 320 323 326 329 329 328 323 314 303 294 285 277 270 264
213 210 209 210 214 219 221 219 219 225 233 236 235 237 242 244 245 247 250 254 259 262 262 262 263 264 267 269 272 273 273 272 267 263 264 265 264 264 264 265 262 259 272 287 291 291 283 274 279 280 281 288 291 295 303 308 310 314 314 313 313 313 312 311 307 305 307 310 311 311 311 313 316 319 322 324 324 323 318 311 302 292 284 276 269
210 208 208 210 214 217 215 215 220 230 235 234 235 240 244 246 249 252 255 258 260 262 263 263 265 267 269 270 271 272 274 274 271 268 268 268 267 265 265 265 259 251 252 267 282 287 282 278 281 281 282 290 295 294 296 303 307 309 310 310 310 310 310 308 306 304 304 306 308 308 308 309 312 315 319 320 320 319 317 314 307 299 291 282 274
207 206 207 210 214 216 214 217 226 233 235 233 236 242 245 248 251 255 258 261 262 262 262 264 267 268 268 267 268 271 275 275 273 272 271 271 271 269 265 263 260 253 244 248 264 278 282 285 285 284 283 287 295 297 296 298 303 305 308 309 309 309 309 307 306 305 304 306 307 307 306 307 309 312 316 318 318 316 315 313 309 303 296 288 279
205 203 203 207 216 219 218 224 231 233 233 235 238 242 245 248 252 256 260 262 262 262 262 264 268 271 271 270 270 275 278 277 276 275 272 271 272 270 267 262 261 257 246 244 255 271 282 287 287 289 289 285 290 296 296 293 294 297 300 303 304 305 306 306 305 304 304 305 306 306 306 306 307 310 313 315 317 315 313 310 308 304 299 292 283
203 199 196 201 215 220 221 227 232 233 234 236 238 240 243 247 251 254 258 260 261 262 264 268 271 274 275 275 277 278 278 278 278 278 276 272 270 268 267 263 262 262 255 248 253 265 278 285 289 291 292 288 290 295 294 288 288 291 293 295 296 297 300 303 303 303 303 304 304 305 305 304 305 308 310 312 313 313 312 309 306 304 300 294 286
198 196 197 202 211 216 219 226 233 237 240 239 240 242 246 249 253 257 260 262 264 265 267 270 273 275 276 278 280 279 277 278 279 279 279 276 272 267 265 263 260 263 263 255 253 261 273 282 288 291 293 293 290 293 292 288 287 289 287 287 288 288 295 300 301 301 302 303 304 304 303 303 304 304 306 307 309 310 310 309 305 303 300 295 288
193 195 198 201 209 214 215 221 233 241 243 244 245 248 251 254 257 261 265 268 268 267 267 270 273 272 273 276 278 278 278 280 281 281 280 279 275 268 265 262 258 262 266 260 253 258 271 280 285 288 291 292 290 291 292 291 290 289 286 284 285 287 294 298 296 295 298 302 303 302 301 303 303 302 301 303 305 306 307 307 305 302 299 295 289
192 191 189 193 209 217 214 215 227 240 245 246 248 251 254 257 260 263 269 271 269 266 267 271 272 271 271 274 277 281 282 282 282 280 277 276 275 270 265 261 257 259 262 260 255 254 264 274 281 286 288 288 290 292 290 290 294 295 292 289 288 290 295 298 295 292 295 297 299 300 301 302 302 300 298 298 300 302 303 304 303 300 297 294 289
192 189 188 193 205 215 218 217 223 235 244 247 248 251 254 259 264 268 271 269 262 260 264 268 271 272 272 272 275 279 281 281 279 277 276 276 274 271 267 262 261 260 259 259 258 256 260 268 276 284 287 287 292 295 294 295 298 299 299 298 297 295 297 300 300 297 294 290 288 290 294 296 296 295 294 293 294 297 299 299 298 297 295 292 288
191 189 194 199 204 212 219 222 224 232 242 247 249 252 256 261 267 271 270 262 254 255 260 264 267 270 269 269 273 277 280 281 280 278 278 276 274 274 271 267 264 262 262 262 262 261 265 268 273 279 283 286 290 294 297 300 298 297 299 301 302 301 298 299 300 299 296 291 286 286 289 293 294 294 294 294 294 295 296 296 295 293 291 289 286
192 194 199 206 210 214 219 225 230 236 242 248 251 254 259 265 268 267 262 254 250 254 260 263 265 267 268 271 275 278 280 282 282 282 280 276 275 275 275 274 271 268 269 271 270 269 270 272 275 278 280 284 288 291 297 301 300 301 302 301 301 300 298 298 298 297 297 295 291 288 290 294 295 294 292 292 293 295 294 293 292 289 287 285 282
198 200 203 211 217 220 223 230 238 244 246 248 252 256 261 265 263 259 254 249 249 255 262 266 268 270 271 273 275 278 280 282 283 283 281 280 278 275 273 275 276 276 276 276 274 274 274 276 277 276 278 284 288 293 298 301 300 301 302 299 298 298 298 296 295 294 294 295 292 288 288 291 294 294 290 287 290 294 291 288 286 284 282 280 278
200 203 208 215 221 227 230 232 238 246 248 250 254 257 258 258 255 253 252 249 250 257 264 268 272 274 275 276 278 279 280 281 283 284 285 285 281 276 272 273 275 276 276 275 275 272 273 278 280 278 279 284 288 293 298 300 299 299 300 299 299 299 300 298 294 293 293 293 292 289 287 287 291 294 291 285 286 288 284 280 278 277 276 273 271
196 204 212 216 221 232 236 235 238 245 248 251 255 257 254 251 251 252 252 251 254 261 266 269 273 276 277 278 278 279 280 282 284 286 289 290 285 279 277 278 282 282 276 272 271 271 270 275 280 280 279 283 287 291 297 300 301 302 302 302 301 300 299 297 295 295 295 292 290 288 287 288 290 290 286 281 281 281 278 277 278 276 273 270 267
196 206 215 216 220 232 237 237 239 244 248 251 254 256 253 249 249 250 250 253 258 264 269 273 277 278 277 276 276 279 281 283 286 289 292 292 289 284 284 287 289 288 283 274 268 268 271 276 281 281 281 286 290 291 296 302 304 305 304 302 300 297 295 294 292 292 293 291 289 287 286 287 288 282 278 277 278 279 278 280 280 276 273 270 267
202 211 217 217 224 233 236 235 239 246 251 251 252 255 251 246 247 246 249 255 260 266 272 276 279 278 276 276 275 277 281 285 291 295 292 290 290 289 291 292 291 291 292 289 277 271 272 274 276 277 279 285 288 290 297 303 304 304 303 300 298 295 292 291 288 288 289 289 287 284 283 286 285 279 277 279 282 284 283 282 279 276 273 270 266
206 216 220 221 228 234 234 236 242 250 252 250 252 255 249 244 247 248 252 258 262 268 273 274 275 275 273 271 271 276 282 287 294 298 290 286 289 291 292 291 290 290 294 296 291 282 278 272 267 273 279 282 287 293 298 301 299 299 298 296 294 291 289 287 285 286 287 286 282 278 279 286 289 284 282 284 288 288 285 281 278 274 270 267 265
210 218 222 225 231 234 235 239 246 251 252 252 255 256 248 245 249 253 256 260 263 268 270 270 270 268 266 269 273 278 285 290 295 295 289 287 289 289 287 287 289 292 292 290 284 279 278 272 267 276 285 287 291 296 298 297 295 292 292 290 287 287 286 285 286 285 286 287 282 275 276 286 289 287 286 288 291 290 286 283 279 274 268 263 261
213 219 225 227 231 234 237 244 249 250 252 253 256 255 249 246 249 254 256 257 261 264 264 263 264 263 266 271 276 282 289 294 294 291 288 289 288 285 284 287 293 297 297 294 286 278 278 280 280 286 291 294 298 301 303 303 299 295 293 290 287 286 285 285 287 287 289 294 290 280 280 287 288 286 288 291 292 290 287 284 279 272 265 260 257
215 220 225 227 231 236 240 247 252 252 253 255 255 255 251 247 248 251 251 249 251 253 254 259 263 265 270 275 279 286 291 288 285 287 291 293 291 285 286 292 296 298 298 297 295 293 296 302 305 306 307 308 310 311 312 312 309 305 297 288 288 289 286 285 287 289 291 294 291 285 283 286 287 287 288 292 292 288 283 281 276 268 262 258 254
218 220 222 226 231 237 242 248 251 251 252 254 255 256 255 250 247 246 243 240 240 242 249 259 265 269 273 277 280 282 280 276 279 288 294 295 294 290 290 294 294 295 296 295 294 298 304 310 316 318 319 319 318 317 317 316 316 313 296 284 288 290 286 285 287 290 292 290 288 287 282 282 287 289 289 292 291 285 280 277 273 265 258 255 252
221 221 223 228 233 240 247 252 252 250 248 250 256 261 259 251 245 240 235 230 231 239 249 257 261 266 270 274 281 282 278 281 287 294 300 301 300 294 288 290 289 290 294 294 292 299 306 311 315 318 320 321 320 317 316 315 316 313 294 285 289 288 285 285 287 291 293 287 288 291 284 284 291 292 289 290 288 286 284 278 272 266 257 251 247
Height
857 857 857 857 857 857 857 858 858 857 857 857 856 856 856 856 855 855 855 855 854 854 854 854 854 853 853 852 852 852 851 851 851 851 851 850 850 849 848 847 847 848 848 848 848 849 849 850 851 851 852 854 855 857 858 860 861 862 863 864 864 865 866 866 867 868 868 869 870 871 872 873 874 874 875 875 876 876 877 877 878 878 878 879 879
856 856 856 856 856 856 856 857 857 856 856 856 855 855 855 855 854 854 854 853 853 853 852 853 852 852 851 851 851 850 850 850 850 850 849 849 848 848 847 846 847 847 847 847 847 847 848 848 849 850 851 853 855 856 858 859 860 861 862 863 863 864 864 865 865 866 867 868 869 870 871 872 872 873 873 874 874 875 876 876 877 877 878 878 878
855 855 855 855 855 855 855 855 856 856 855 855 854 854 854 854 853 853 853 852 852 852 851 852 851 851 850 850 850 849 849 849 849 848 848 848 847 846 846 846 846 846 846 846 846 846 847 847 849 851 853 854 855 856 857 858 860 861 861 862 862 863 863 863 863 864 865 866 867 868 869 870 871 872 872 873 873 874 874 875 876 876 876 877 877
854 854 854 854 854 854 854 854 854 854 854 854 853 853 853 852 852 852 852 851 852 851 851 851 850 850 850 849 849 848 848 847 847 847 847 846 846 845 844 844 844 845 845 845 845 845 846 848 849 851 853 853 853 854 856 857 858 859 860 860 861 861 861 861 862 862 863 864 865 866 867 868 869 870 871 871 872 872 873 873 874 875 875 876 876
853 853 853 853 853 853 853 853 853 853 853 853 853 853 852 852 852 851 851 851 851 851 850 850 850 849 849 849 848 848 847 847 846 846 845 845 844 843 843 843 843 843 844 844 844 845 846 848 849 851 851 850 852 855 856 856 856 856 857 858 859 859 860 860 860 860 861 862 863 864 865 866 867 868 869 870 870 871 871 872 873 873 874 874 875
852 852 852 852 852 852 852 852 852 852 852 852 852 852 852 851 851 851 851 851 850 850 850 849 849 849 849 848 848 847 847 846 846 844 844 843 843 842 842 842 842 842 842 843 843 844 845 847 849 849 848 849 852 853 853 853 853 854 855 856 857 858 858 859 859 859 860 860 861 862 863 864 865 866 867 868 869 869 870 870 871 871 872 873 873
851 851 851 851 851 851 851 851 851 851 851 852 852 852 851 851 851 851 851 850 850 850 849 849 848 848 848 848 847 847 846 846 845 844 843 842 841 841 841 841 841 841 841 842 843 843 845 847 848 847 847 848 849 849 849 849 850 851 853 854 855 855 856 856 857 857 858 859 860 861 862 863 864 865 865 866 867 868 868 869 869 870 870 871 871
849 849 850 850 850 850 850 850 851 850 851 851 852 851 851 851 850 851 850 850 850 849 849 849 848 848 847 847 847 846 846 845 844 844 843 841 841 840 839 839 839 840 840 841 842 843 844 845 847 847 845 845 845 845 846 848 848 849 850 851 852 853 853 854 854 855 856 857 859 860 861 861 862 863 864 864 865 866 866 867 867 868 869 869 870
848 848 849 849 849 849 849 849 849 850 850 851 851 851 850 851 851 850 850 850 850 849 849 848 848 847 847 846 846 846 845 845 844 843 842 841 840 839 838 838 838 838 839 840 841 842 843 844 845 846 844 842 843 844 845 845 846 846 847 848 849 850 850 851 852 853 855 856 857 858 859 860 861 861 862 862 863 864 864 865 865 866 866 867 868
847 847 848 848 848 848 849 848 849 849 850 850 850 850 850 850 850 850 850 850 850 849 848 848 847 847 846 846 845 845 845 844 843 843 842 842 840 839 838 837 837 837 838 840 840 841 842 843 843 844 843 841 841 842 843 843 844 844 844 845 846 847 848 849 851 853 854 855 857 858 858 859 860 860 860 861 861 862 862 863 863 864 864 865 866
846 846 847 847 847 847 848 848 848 849 849 850 850 850 850 850 850 849 849 849 849 849 848 847 847 846 845 845 844 844 844 844 843 843 842 842 841 840 839 838 837 837 837 838 839 840 841 842 842 842 842 841 840 841 842 842 843 843 843 843 843 844 846 848 851 853 854 855 855 855 856 857 858 858 858 859 859 859 860 860 861 861 862 863 863
845 846 846 846 846 847 847 848 848 848 849 849 849 849 849 849 849 849 849 849 848 848 848 847 847 846 845 844 844 843 843 843 843 843 842 841 841 840 839 839 838 837 837 837 838 839 839 840 841 842 842 841 840 841 841 840 841 841 841 841 842 844 845 847 850 852 852 852 852 851 851 852 854 855 856 856 857 857 858 858 858 859 860 860 861
844 844 845 846 846 846 846 847 848 848 848 848 848 848 848 849 848 848 849 849 848 848 848 848 847 846 845 844 843 843 843 843 843 843 842 842 841 840 840 839 839 838 837 836 836 837 837 838 839 840 841 841 841 841 840 840 839 840 840 840 841 843 845 846 848 849 849 849 849 848 848 849 851 852 853 853 854 855 855 856 856 857 857 858 858
842 843 844 845 845 845 846 846 847 847 848 847 848 848 848 848 848 848 849 849 849 848 848 847 847 847 846 844 843 843 843 843 843 843 842 842 842 841 841 840 839 838 837 837 836 836 836 836 837 838 839 839 840 840 840 839 839 839 839 839 840 842 843 844 846 846 845 845 845 846 847 848 850 850 851 851 852 852 853 853 854 854 854 855 856
841 842 843 843 844 844 845 846 846 846 846 847 847 847 847 847 848 848 849 849 849 848 848 848 847 847 847 846 844 843 843 843 843 843 843 842 842 842 841 841 840 839 838 838 837 836 836 835 835 836 836 837 838 838 838 838 838 838 838 838 839 840 841 841 842 842 842 842 843 844 845 846 847 847 847 848 848 849 850 850 851 851 851 852 853
840 841 842 842 843 843 844 844 845 845 845 846 846 846 846 846 847 847 848 848 848 848 849 849 848 848 847 847 846 845 844 843 842 843 843 843 843 843 842 842 841 840 840 839 838 837 837 836 835 835 835 835 836 836 837 837 837 837 837 838 838 839 839 839 839 840 840 840 841 842 842 843 842 842 842 843 844 845 846 846 847 848 848 849 849
839 840 840 841 841 842 843 843 844 844 844 844 845 845 845 846 846 846 847 847 848 848 848 848 848 848 848 848 847 846 845 844 843 843 843 843 843 843 843 843 842 841 841 840 839 838 838 837 836 835 835 834 834 835 835 836 836 836 837 837 837 838 838 838 838 838 839 838 839 839 839 839 839 838 839 840 841 841 842 843 843 844 845 845 846
837 838 839 840 840 841 842 842 842 843 843 843 844 844 845 845 846 846 847 847 847 847 847 848 848 848 848 848 848 848 847 846 845 844 843 843 844 844 844 844 843 842 842 841 840 840 839 838 837 836 835 835 834 834 835 835 835 835 836 836 836 837 837 837 836 837 837 837 837 836 837 837 836 836 836 837 837 838 839 840 840 841 841 842 843
836 837 837 838 839 840 841 841 842 842 842 843 843 843 844 845 845 846 846 847 847 846 846 847 847 847 848 848 848 849 849 848 847 847 846 844 844 844 845 844 844 844 843 842 842 841 840 839 839 837 836 836 835 835 835 835 835 835 835 835 835 835 835 835 835 835 835 835 834 834 834 834 834 834 834 834 834 835 835 836 837 838 838 839 839
834 835 836 837 838 839 840 840 841 841 842 842 842 842 843 843 844 845 846 846 846 846 846 846 846 847 847 847 848 848 849 849 849 848 848 847 845 844 845 845 845 845 844 843 843 842 841 840 840 838 837 836 835 835 835 834 834 834 834 834 834 834 833 833 833 832 832 832 832 831 831 831 831 831 831 831 831 832 832 833 834 835 835 835 836
833 834 835 836 837 838 839 840 840 841 842 842 842 842 842 842 843 843 844 845 845 845 845 846 846 846 846 846 847 848 848 849 849 849 849 849 846 844 844 845 844 845 845 844 843 843 842 841 840 839 838 837 836 835 834 834 833 833 833 833 833 833 832 832 831 831 830 830 829 828 828 828 828 828 828 828 828 829 829 830 830 831 831 831 832
832 833 834 835 836 837 837 838 839 840 841 841 842 842 842 842 842 842 843 843 844 844 845 845 845 845 845 845 846 846 847 847 848 849 849 849 848 845 844 844 844 844 844 844 844 843 842 842 841 840 839 838 837 836 835 834 833 832 832 832 832 832 831 831 830 829 829 828 827 826 826 826 826 825 825 825 825 826 826 826 827 827 827 828 828
831 832 834 834 835 836 837 838 838 839 840 841 841 842 842 842 841 841 842 842 843 843 844 844 844 845 845 845 845 845 845 846 846 847 848 847 847 845 843 843 843 843 843 843 843 843 842 841 841 840 839 838 838 837 835 834 833 832 831 831 830 830 830 830 829 828 827 826 826 825 824 823 823 823 822 822 822 822 823 823 823 824 824 824 824
830 831 832 833 834 835 836 837 838 838 839 840 840 841 841 841 841 841 841 842 842 843 843 844 844 844 844 844 844 844 845 845 845 846 846 846 846 845 843 843 843 842 842 842 842 842 841 841 840 839 839 838 837 836 835 834 833 832 830 829 829 829 829 828 827 827 826 825 824 823 822 821 821 820 820 819 819 819 819 820 820 820 820 821 821
827 828 829 831 833 834 835 836 837 838 838 839 839 840 840 841 841 841 841 842 842 843 843 844 844 844 844 844 844 844 844 844 844 844 845 845 845 845 843 843 843 841 841 841 840 840 839 839 838 838 837 837 836 835 834 833 832 831 829 828 827 827 826 826 826 825 824 823 823 822 821 820 819 818 817 817 817 816 816 816 816 817 817 817 817
825 826 828 830 832 833 834 836 836 837 838 838 839 839 840 840 841 841 841 842 842 842 843 843 843 843 844 844 844 844 844 844 843 843 843 844 844 843 843 842 841 840 839 839 839 838 838 837 837 836 835 835 834 833 832 832 831 830 828 827 825 825 824 824 824 823 822 821 820 820 819 818 817 816 815 814 814 813 813 813 813 813 813 813 814
823 825 827 829 830 832 833 835 836 837 837 838 838 839 839 840 840 841 841 841 841 841 842 842 843 843 843 843 843 843 843 843 843 843 842 842 842 842 842 842 840 838 837 836 836 836 836 835 835 834 833 832 832 831 830 830 829 828 827 825 824 822 822 821 821 820 820 819 818 817 816 816 815 814 813 812 811 811 810 810 809 809 809 809 810
822 824 826 827 829 830 832 833 834 836 836 837 838 838 838 839 839 840 840 840 840 841 841 841 842 842 842 842 842 842 842 842 842 842 841 841 841 841 841 841 840 838 836 834 833 833 833 833 832 831 831 830 830 829 828 827 827 826 825 824 822 820 819 818 818 817 817 816 815 814 813 813 812 811 810 809 808 808 807 806 806 805 805 805 806
820 822 824 825 827 829 830 832 833 834 835 835 836 837 837 838 838 839 839 839 840 840 840 840 840 840 840 840 840 840 840 840 840 840 840 839 839 839 839 839 839 839 837 834 831 831 832 832 831 829 828 828 827 826 825 825 824 824 823 821 820 818 817 815 814 814 814 813 813 812 811 809 808 808 807 806 805 804 803 802 802 801 801 801 801
818 820 822 823 825 827 828 830 831 833 834 834 834 835 836 837 837 837 838 838 838 838 838 839 839 839 838 838 838 838 838 838 838 838 838 838 837 837 837 837 837 837 837 835 830 828 830 830 829 828 827 826 825 824 823 822 821 821 820 818 817 815 814 812 811 810 810 810 809 809 807 806 805 804 803 802 801 800 799 798 798 797 796 796 796
816 818 820 821 823 825 826 828 830 831 832 832 833 834 834 835 836 837 837 837 837 837 837 837 837 837 836 836 836 836 836 836 836 836 836 836 835 835 835 835 835 835 835 835 831 827 827 828 826 826 826 824 823 821 820 818 817 817 817 815 814 812 810 808 807 806 806 806 806 805 804 803 802 800 799 798 797 796 795 794 793 793 792 791 791
814 816 818 820 822 824 825 827 828 829 830 830 831 832 833 834 835 836 836 836 836 836 836 836 836 836 835 835 834 834 834 834 834 834 834 833 833 832 832 832 832 832 833 834 831 826 825 825 824 823 822 821 820 818 816 815 814 813 812 811 810 808 807 805 803 803 802 802 801 801 800 799 798 796 795 793 792 792 791 789 789 788 787 787 786
812 813 815 818 821 822 824 825 826 827 828 829 829 830 831 832 833 834 835 835 835 834 835 835 834 834 834 833 833 832 832 832 832 832 831 831 830 830 830 829 829 830 830 830 829 826 823 822 822 821 820 819 816 815 813 812 811 810 808 807 806 804 803 802 800 799 798 798 797 796 796 795 794 793 791 789 788 787 786 785 784 783 783 782 781
810 811 813 815 818 820 821 823 825 826 826 827 828 828 829 830 831 832 833 833 833 833 833 833 832 832 832 831 831 830 830 829 829 829 829 828 828 827 827 827 827 827 827 827 826 824 822 820 819 817 817 816 814 812 810 809 808 807 805 803 802 801 799 798 796 795 794 794 793 792 791 790 790 789 787 785 784 782 781 781 779 778 777 777 776
809 811 811 812 814 817 819 821 824 825 825 825 826 827 827 828 829 830 830 830 830 830 830 830 830 830 829 829 828 828 827 827 826 826 826 826 825 825 824 824 824 823 824 824 823 822 820 818 817 815 813 813 812 810 809 807 805 804 802 800 798 797 795 793 792 790 790 790 789 788 787 785 785 784 783 781 779 778 776 775 775 773 772 771 771
807 808 809 810 813 815 816 818 821 823 824 824 825 825 825 826 826 827 827 827 827 827 827 827 827 827 827 826 826 826 825 824 824 824 823 823 823 822 822 821 821 821 820 820 820 819 817 816 815 813 811 810 809 808 807 805 803 801 799 797 795 793 791 789 788 786 785 785 784 783 782 780 779 778 777 776 775 773 771 770 769 768 766 765 765
802 803 803 806 811 813 812 813 817 819 821 822 823 823 823 823 823 824 824 824 825 825 825 825 825 825 824 824 823 823 823 822 822 821 821 821 820 820 819 819 818 818 817 817 816 815 814 813 812 811 810 808 806 805 804 802 800 798 796 795 793 791 788 787 785 783 782 780 779 778 776 775 773 772 772 771 769 768 766 764 762 761 760 759 758
798 798 799 801 805 809 810 810 812 815 817 819 819 820 820 820 820 821 821 822 822 822 823 823 823 823 822 822 821 821 820 820 819 819 819 818 818 817 817 816 816 815 815 814 813 812 811 810 809 808 807 805 803 802 801 800 798 796 794 792 790 789 786 784 783 782 780 778 776 774 772 770 769 767 766 765 764 762 760 758 756 754 753 752 751
795 796 797 798 800 804 807 808 809 811 813 815 816 816 817 817 818 818 819 820 820 821 821 821 821 821 820 820 819 818 817 817 817 816 816 816 816 815 814 814 813 813 812 811 810 809 808 806 805 804 803 802 800 799 798 797 796 794 792 789 787 785 784 782 780 779 777 775 773 771 769 766 764 762 760 758 757 756 754 751 749 747 745 744 743
794 795 797 799 799 801 804 805 807 808 809 811 812 813 814 815 815 816 816 817 818 818 819 819 819 818 818 817 816 815 815 814 814 814 814 813 813 812 812 811 811 810 809 808 807 806 805 803 802 801 799 798 797 796 795 794 792 791 789 787 784 782 781 779 777 776 774 772 770 767 766 764 761 757 754 751 749 749 747 744 742 739 737 736 735
792 794 796 798 799 800 802 803 805 806 806 808 809 810 811 812 812 813 814 815 815 816 816 816 816 815 815 814 813 812 812 811 811 811 811 811 810 810 809 809 808 808 807 806 805 803 802 800 799 798 796 795 794 792 791 791 789 787 786 785 782 779 778 775 774 773 772 769 766 763 762 761 758 754 752 747 742 741 739 737 734 732 729 728 727
789 791 793 795 798 800 800 801 802 803 803 804 806 807 808 809 809 810 811 811 812 812 812 812 812 812 811 811 810 809 809 808 808 808 808 808 807 806 806 806 805 805 804 803 802 801 799 798 796 795 793 791 790 789 788 787 786 785 783 781 779 776 774 771 769 769 769 767 763 759 756 757 755 750 747 742 736 733 731 728 726 724 722 721 721
784 788 791 792 795 797 798 797 797 799 800 801 803 804 805 806 807 807 808 808 808 809 809 809 809 808 808 807 806 806 806 805 805 805 804 804 804 803 803 803 802 802 801 800 799 798 797 795 794 793 790 788 788 787 785 784 783 782 780 779 776 774 772 768 765 764 765 764 760 755 750 751 751 745 738 733 729 725 722 719 717 716 714 713 713
781 784 788 790 791 793 794 794 794 795 796 798 799 801 802 803 804 804 805 805 805 806 806 806 806 805 804 804 804 803 803 803 802 802 801 801 800 800 800 799 799 798 797 797 796 795 794 793 792 791 789 786 786 785 783 781 780 779 778 776 774 772 769 767 763 760 761 761 758 751 743 742 745 739 729 724 722 718 714 711 710 709 707 706 706
780 783 785 787 788 790 790 790 791 792 794 795 796 798 799 800 802 802 802 803 803 803 803 803 803 802 802 801 801 801 800 800 799 799 799 798 798 797 797 796 795 794 793 793 793 792 792 791 790 789 787 786 784 782 781 780 778 777 775 773 771 769 766 764 760 757 757 758 755 747 737 735 737 731 721 718 716 712 708 705 704 702 700 699 698
779 781 783 784 785 787 787 788 789 790 791 792 793 795 797 798 799 800 800 801 800 800 800 800 800 800 799 799 799 799 798 797 797 797 796 796 796 795 795 793 792 792 791 790 790 789 789 789 788 786 785 784 782 780 779 779 777 775 773 770 768 766 763 760 757 754 753 753 751 744 733 729 730 723 715 712 710 705 701 698 696 694 692 691 691
777 779 781 781 782 784 785 785 786 787 787 789 791 793 794 796 797 798 798 798 797 797 797 797 798 798 797 797 796 796 796 795 795 795 794 794 794 793 792 791 790 789 789 788 788 787 787 786 785 784 783 782 780 779 777 776 774 772 771 768 765 763 760 756 753 750 748 747 747 740 729 724 724 717 709 706 703 698 694 691 688 685 684 683 683
775 776 778 779 780 782 782 782 783 784 785 787 788 790 792 794 794 794 794 794 794 794 795 795 795 795 795 795 794 793 793 793 793 792 792 792 792 791 790 789 787 787 786 786 785 785 785 784 783 782 780 779 777 776 774 772 770 768 767 765 762 760 757 753 748 745 743 741 740 736 728 721 718 713 705 700 696 691 686 683 680 677 675 675 675
772 774 775 776 777 778 779 779 780 781 783 784 786 787 789 790 791 791 791 791 791 792 793 793 793 793 793 792 791 791 791 791 791 790 790 790 789 788 788 786 785 785 784 784 783 782 781 781 780 778 777 775 773 772 770 769 767 766 765 762 759 757 754 749 744 740 738 735 732 732 727 717 712 709 702 695 690 684 679 675 671 669 668 667 668
769 771 771 772 774 775 776 777 778 779 780 781 783 784 786 787 788 788 788 789 789 790 791 791 791 791 790 790 789 788 789 789 789 788 787 787 786 786 785 784 784 783 783 782 782 781 779 778 776 774 772 771 770 768 767 766 764 763 762 759 756 754 750 746 741 737 734 730 726 727 723 713 707 705 699 691 682 675 671 668 664 663 662 661 661
767 768 769 770 771 772 774 775 776 777 778 779 780 782 783 784 785 785 785 786 787 788 789 789 788 788 788 788 787 786 787 787 786 785 784 784 783 783 783 783 782 782 781 781 780 779 777 775 773 772 770 768 767 766 764 763 761 760 759 756 754 751 747 743 739 735 732 726 722 723 718 709 703 700 695 690 679 667 663 663 659 657 657 656 656